Weather History for Darlington, SC

Change the Weather History Date:

Thursday, November 21, 2013

  Actual Average (KFLO) Record (KFLO)
Temperature  
Mean Temperature 56 °F 54 °F  
Max Temperature 66 °F 66 °F 80 °F (1977)
Min Temperature 46 °F 42 °F 22 °F (1951)
Degree Days  
Heating Degree Days 9 12  
Month to date heating degree days 188  
Since 1 July heating degree days 305  
Cooling Degree Days 0 0  
Month to date cooling degree days 16  
Year to date cooling degree days 2058  
Growing Degree Days 6 (Base 50)    
Moisture  
Dew Point 42 °F    
Average Humidity 62    
Maximum Humidity 72    
Minimum Humidity 49    
Precipitation  
Precipitation 0.00 in 0.10 in 1.52 in (2005)
Month to date precipitation 1.85  
Year to date precipitation 39.08  
Sea Level Pressure  
Sea Level Pressure 30.42 in    
Wind  
Wind Speed 7 mph (NNE)    
Max Wind Speed 12 mph    
Max Gust Speed -    
Visibility 10 miles    
Events      
T = Trace of Precipitation, MM = Missing Value Source: NWS Daily Summary

Daily Weather History Graph

Daily Weather History Graph

Search for Another Location

Airport:

Trip Planner

Search our weather history database for the weather conditions in past years. The results will help you decide how hot, cold, wet, or windy it might be!

Date:

Astronomy

Nov. 21, 2013 Rise Set
Actual Time 6:58 AM EST 5:11 PM EST
Civil Twilight 6:31 AM EST 5:38 PM EST
Nautical Twilight 6:01 AM EST 6:09 PM EST
Astronomical Twilight 5:31 AM EST 6:39 PM EST
Moon 8:45 PM EST (11/21) 10:05 AM EST (11/21)
Length of Visible Light 11h 07m
Length of Day
10h 12m
Waning Gibbous, 85% of the Moon is Illuminated
Nov 21
Waning Gibbous
Nov 25
Last Quarter
Dec 2
New
Dec 9
First Quarter
Dec 17
Full

Hourly Weather History & Observations

Time (EST) Temp. Windchill Dew Point Humidity Pressure Visibility Wind Dir Wind Speed Gust Speed Precip Events Conditions
12:15 AM 48.2 °F - 33.8 °F 58% 30.41 in 10.0 mi NNE 6.9 mph - N/A   Overcast
12:35 AM 48.2 °F - 33.8 °F 58% 30.42 in 10.0 mi North 6.9 mph - N/A   Overcast
12:55 AM 46.4 °F 42.4 °F 33.8 °F 62% 30.42 in 10.0 mi North 8.1 mph - N/A   Partly Cloudy
1:15 AM 46.4 °F 42.9 °F 33.8 °F 62% 30.42 in 10.0 mi North 6.9 mph - N/A   Clear
1:35 AM 46.4 °F 43.5 °F 33.8 °F 62% 30.42 in 10.0 mi North 5.8 mph - N/A   Scattered Clouds
1:55 AM 46.4 °F 43.5 °F 35.6 °F 66% 30.43 in 10.0 mi North 5.8 mph - N/A   Mostly Cloudy
2:15 AM 46.4 °F 42.4 °F 35.6 °F 66% 30.43 in 10.0 mi North 8.1 mph - N/A   Overcast
2:35 AM 46.4 °F 41.9 °F 35.6 °F 66% 30.43 in 10.0 mi North 9.2 mph - N/A   Overcast
2:55 AM 46.4 °F 41.9 °F 35.6 °F 66% 30.43 in 10.0 mi North 9.2 mph - N/A   Overcast
3:15 AM 46.4 °F 41.5 °F 35.6 °F 66% 30.43 in 10.0 mi North 10.4 mph - N/A   Mostly Cloudy
3:35 AM 46.4 °F 42.4 °F 35.6 °F 66% 30.43 in 10.0 mi North 8.1 mph - N/A   Mostly Cloudy
3:55 AM 46.4 °F 41.5 °F 35.6 °F 66% 30.43 in 10.0 mi NNE 10.4 mph - N/A   Overcast
4:15 AM 46.4 °F 42.9 °F 35.6 °F 66% 30.42 in 10.0 mi NNE 6.9 mph - N/A   Overcast
4:35 AM 46.4 °F 42.9 °F 35.6 °F 66% 30.43 in 10.0 mi North 6.9 mph - N/A   Overcast
4:55 AM 46.4 °F 42.4 °F 35.6 °F 66% 30.43 in 10.0 mi North 8.1 mph - N/A   Overcast
5:15 AM 46.4 °F 42.9 °F 35.6 °F 66% 30.43 in 10.0 mi North 6.9 mph - N/A   Overcast
5:35 AM 46.4 °F 41.5 °F 35.6 °F 66% 30.43 in 10.0 mi North 10.4 mph - N/A   Overcast
5:55 AM 46.4 °F 41.9 °F 35.6 °F 66% 30.43 in 10.0 mi North 9.2 mph - N/A   Overcast
6:15 AM 46.4 °F 41.9 °F 37.4 °F 71% 30.43 in 10.0 mi North 9.2 mph - N/A   Overcast
6:35 AM 46.4 °F 42.9 °F 37.4 °F 71% 30.43 in 10.0 mi NNE 6.9 mph - N/A   Mostly Cloudy
6:55 AM 46.4 °F 41.1 °F 37.4 °F 71% 30.44 in 10.0 mi North 11.5 mph - N/A   Overcast
7:15 AM 46.4 °F 41.9 °F 37.4 °F 71% 30.45 in 10.0 mi NNE 9.2 mph - N/A   Overcast
7:35 AM 46.4 °F 42.4 °F 37.4 °F 71% 30.45 in 10.0 mi North 8.1 mph - N/A   Overcast
7:55 AM 48.2 °F - 37.4 °F 66% 30.45 in 10.0 mi North 8.1 mph - N/A   Overcast
8:15 AM 48.2 °F - 37.4 °F 66% 30.45 in 10.0 mi NNE 8.1 mph - N/A   Overcast
8:35 AM 48.2 °F - 37.4 °F 66% 30.46 in 10.0 mi North 8.1 mph - N/A   Mostly Cloudy
8:55 AM 50.0 °F - 37.4 °F 62% 30.46 in 10.0 mi NNE 8.1 mph - N/A   Partly Cloudy
9:15 AM 51.8 °F - 37.4 °F 58% 30.46 in 10.0 mi NNE 8.1 mph - N/A   Clear
9:35 AM 53.6 °F - 39.2 °F 58% 30.46 in 10.0 mi NNE 9.2 mph - N/A   Scattered Clouds
9:55 AM 53.6 °F - 39.2 °F 58% 30.47 in 10.0 mi NNE 9.2 mph - N/A   Mostly Cloudy
10:15 AM 55.4 °F - 41.0 °F 58% 30.47 in 10.0 mi North 8.1 mph - N/A   Mostly Cloudy
10:35 AM 55.4 °F - 41.0 °F 58% 30.47 in 10.0 mi NNE 6.9 mph - N/A   Mostly Cloudy
10:55 AM 57.2 °F - 42.8 °F 59% 30.46 in 10.0 mi NNE 9.2 mph - N/A   Scattered Clouds
11:15 AM 55.4 °F - 42.8 °F 63% 30.45 in 10.0 mi North 5.8 mph - N/A   Scattered Clouds
11:35 AM 59.0 °F - 42.8 °F 55% 30.45 in 10.0 mi NNE 8.1 mph - N/A   Scattered Clouds
11:55 AM 60.8 °F - 44.6 °F 55% 30.43 in 10.0 mi NNE 6.9 mph - N/A   Partly Cloudy
12:15 PM 60.8 °F - 44.6 °F 55% 30.42 in 10.0 mi NNE 5.8 mph - N/A   Scattered Clouds
12:35 PM 64.4 °F - 44.6 °F 49% 30.42 in 10.0 mi NNE 6.9 mph - N/A   Partly Cloudy
12:55 PM 64.4 °F - 46.4 °F 52% 30.42 in 10.0 mi ENE 9.2 mph - N/A   Mostly Cloudy
1:15 PM 64.4 °F - 46.4 °F 52% 30.40 in 10.0 mi NNE 8.1 mph - N/A   Overcast
1:35 PM 64.4 °F - 46.4 °F 52% 30.40 in 10.0 mi NNE 6.9 mph - N/A   Mostly Cloudy
1:55 PM 66.2 °F - 46.4 °F 49% 30.39 in 10.0 mi NNE 9.2 mph - N/A   Mostly Cloudy
2:15 PM 66.2 °F - 48.2 °F 52% 30.39 in 10.0 mi NE 6.9 mph - N/A   Mostly Cloudy
2:35 PM 66.2 °F - 48.2 °F 52% 30.38 in 10.0 mi NNE 9.2 mph - N/A   Mostly Cloudy
2:55 PM 66.2 °F - 48.2 °F 52% 30.38 in 10.0 mi North 6.9 mph - N/A   Overcast
3:15 PM 66.2 °F - 48.2 °F 52% 30.37 in 10.0 mi NNE 8.1 mph - N/A   Overcast
3:35 PM 66.2 °F - 48.2 °F 52% 30.37 in 10.0 mi NNE 6.9 mph - N/A   Overcast
3:55 PM 66.2 °F - 48.2 °F 52% 30.37 in 10.0 mi NNE 6.9 mph - N/A   Overcast
4:15 PM 66.2 °F - 48.2 °F 52% 30.37 in 10.0 mi NE 4.6 mph - N/A   Partly Cloudy
4:35 PM 64.4 °F - 48.2 °F 56% 30.37 in 10.0 mi NE 3.5 mph - N/A   Clear
4:55 PM 62.6 °F - 48.2 °F 59% 30.37 in 10.0 mi North 4.6 mph - N/A   Partly Cloudy
5:15 PM 60.8 °F - 48.2 °F 63% 30.37 in 10.0 mi North 4.6 mph - N/A   Mostly Cloudy
5:35 PM 60.8 °F - 48.2 °F 63% 30.38 in 10.0 mi NNW 3.5 mph - N/A   Overcast
5:55 PM 60.8 °F - 48.2 °F 63% 30.38 in 10.0 mi North 5.8 mph - N/A   Overcast
6:15 PM 60.8 °F - 48.2 °F 63% 30.38 in 10.0 mi North 5.8 mph - N/A   Overcast
6:35 PM 62.6 °F - 48.2 °F 59% 30.39 in 10.0 mi North 4.6 mph - N/A   Overcast
6:55 PM 60.8 °F - 48.2 °F 63% 30.39 in 10.0 mi North 4.6 mph - N/A   Mostly Cloudy
7:15 PM 60.8 °F - 48.2 °F 63% 30.39 in 10.0 mi NNE 4.6 mph - N/A   Overcast
7:35 PM 60.8 °F - 48.2 °F 63% 30.40 in 10.0 mi NE 5.8 mph - N/A   Overcast
7:55 PM 62.6 °F - 48.2 °F 59% 30.40 in 10.0 mi NNE 4.6 mph - N/A   Overcast
8:15 PM 60.8 °F - 48.2 °F 63% 30.40 in 10.0 mi NNE 3.5 mph - N/A   Overcast
8:35 PM 60.8 °F - 48.2 °F 63% 30.40 in 10.0 mi NNE 4.6 mph - N/A   Overcast
8:55 PM 60.8 °F - 48.2 °F 63% 30.40 in 10.0 mi NNE 3.5 mph - N/A   Overcast
9:15 PM 60.8 °F - 48.2 °F 63% 30.41 in 10.0 mi Calm Calm - N/A   Overcast
9:35 PM 60.8 °F - 48.2 °F 63% 30.41 in 10.0 mi Calm Calm - N/A   Overcast
9:55 PM 60.8 °F - 48.2 °F 63% 30.40 in 10.0 mi NNE 4.6 mph - N/A   Overcast
10:15 PM 59.0 °F - 48.2 °F 67% 30.40 in 10.0 mi North 3.5 mph - N/A   Overcast
10:35 PM 59.0 °F - 48.2 °F 67% 30.40 in 10.0 mi North 3.5 mph - N/A   Overcast
10:55 PM 59.0 °F - 48.2 °F 67% 30.40 in 10.0 mi Calm Calm - N/A   Overcast
11:15 PM 57.2 °F - 48.2 °F 72% 30.40 in 10.0 mi North 4.6 mph - N/A   Overcast
11:35 PM 59.0 °F - 48.2 °F 67% 30.40 in 10.0 mi North 4.6 mph - N/A   Overcast
11:55 PM 59.0 °F - 48.2 °F 67% 30.40 in 10.0 mi North 4.6 mph - N/A   Overcast